Flag for Germany Past Weather in Neustadt an der Weinstraße, Rhineland-Palatinate, Germany — Yesterday and Last 2 Weeks

Now
59 °F

More clouds than sun.


Feels Like: 60 °F
Forecast: 51 / 60 °F
Wind: 3 mph from North

Location: Mannheim City

Current Time: Oct 1, 2016 at 9:00:22 AM

Latest Report: Oct 1, 2016 at 8:20 AM


Visibility: 4 mi

Pressure: 29.83 "Hg

Humidity: 100%

Dew Point: 59 °F

Location of Neustadt an der WeinstraßeLocation

Past Weather in Neustadt an der Weinstraße — Graph

°F

Neustadt an der Weinstraße Temperature Yesterday

Maximum temperature yesterday: 70 °F (at 1:50 PM)
Minimum temperature yesterday: 61 °F (at 4:50 PM)
Average temperature yesterday: 64 °F

High & Low Weather Summary for the Past Weeks

 TemperatureHumidityPressure
High79 °F (Sep 29, 4:50 PM)100% (Sep 17, 7:50 AM)30.39 "Hg (Sep 17, 7:50 AM)
Low45 °F (Sep 22, 5:50 AM)32% (Sep 29, 5:50 PM)29.83 "Hg (Oct 1, 6:50 AM)
Average64 °F70%30.12 "Hg
* Reported Sep 16 7:20 AM — Oct 1 7:50 AM, Neustadt an der Weinstraße, Weather by CustomWeather, © 2016

Note: Actual official high and low records may vary slightly from our data, if they occured in-between our weather recording intervals... More about our weather records

Advertising

Neustadt an der Weinstraße Weather History for the Previous 24 Hours

Scroll right to see more
 ConditionsComfort  
Time TempWeatherWind HumidityBarometerVisibility
7:50 AM
Sat, Oct 1
59 °FLight rain. More clouds than sun.5 mph100%29.83 "Hg4 mi
7:20 AM59 °FLight rain. Overcast.3 mph100%29.83 "Hg6 mi
6:50 AM59 °FLight rain. Overcast.6 mph100%29.83 "Hg5 mi
9:20 PM
Fri, Sep 30
61 °FMostly cloudy.2 mph83%29.98 "HgN/A
8:50 PM61 °FPassing clouds.2 mph83%29.98 "HgN/A
8:20 PM61 °FPassing clouds.2 mph83%29.98 "HgN/A
7:50 PM63 °FPartly cloudy.1 mph77%29.98 "HgN/A
7:20 PM63 °FPartly cloudy.2 mph77%29.98 "HgN/A
6:50 PM63 °FBroken clouds.2 mph73%29.98 "HgN/A
6:20 PM63 °FPartly sunny.3 mph73%29.98 "HgN/A
5:50 PM63 °FBroken clouds.5 mph77%29.98 "HgN/A
5:20 PM63 °FPartly sunny.5 mph77%30.01 "HgN/A
4:50 PM61 °FMore clouds than sun.5 mph83%30.01 "HgN/A
4:20 PM63 °FPassing clouds.7 mph73%30.01 "HgN/A
3:50 PM63 °FPartly sunny.7 mph77%30.01 "HgN/A
3:20 PM63 °FPartly sunny.10 mph77%30.01 "HgN/A
2:50 PM63 °FPartly sunny.12 mph83%30.01 "HgN/A
2:20 PM64 °FMostly cloudy.13 mph68%30.01 "HgN/A
1:50 PM70 °FPassing clouds.6 mph53%29.98 "HgN/A
1:20 PM68 °FPassing clouds.5 mph56%30.01 "HgN/A
12:50 PM68 °FSunny.6 mph56%29.98 "Hg10 mi
12:20 PM68 °FPassing clouds.8 mph56%29.98 "HgN/A
11:50 AM68 °FPassing clouds.7 mph56%29.98 "HgN/A
11:20 AM64 °FPassing clouds.5 mph64%29.98 "HgN/A
10:50 AM64 °FPassing clouds.5 mph64%30.01 "HgN/A
10:20 AM63 °FPassing clouds.5 mph68%29.98 "HgN/A
9:50 AM64 °FPassing clouds.5 mph64%29.98 "HgN/A
9:20 AM63 °FSunny.3 mph73%29.98 "Hg10 mi
Weather by CustomWeather, © 2016

See weather overviewHow to use our weather pages